Weather History for Las Vegas, NV

Change the Weather History Date:

Friday, May 31, 2013

  Actual Average Record
Temperature  
Mean Temperature 86 °F 82 °F  
Max Temperature 97 °F 94 °F 104 °F (1977)
Min Temperature 74 °F 70 °F 47 °F (1937)
Degree Days  
Heating Degree Days 0 0  
Month to date heating degree days 0 4  
Since 1 July heating degree days 1757 1950  
Cooling Degree Days 21 17  
Month to date cooling degree days 410 390  
Year to date cooling degree days 690 550  
Growing Degree Days 35 (Base 50)    
Moisture  
Dew Point 19 °F    
Average Humidity 11    
Maximum Humidity 16    
Minimum Humidity 5    
Precipitation  
Precipitation 0.00 in 0.00 in 0.28 in (1986)
Month to date precipitation 0.00 0.12  
Year to date precipitation 0.61 2.01  
Snow  
Snow 0.00 in 0.00 in 0.00 in ()
Month to date snowfall 0.0 0.0  
Since 1 July snowfall T 0.3  
Snow Depth 0.00 in    
Sea Level Pressure  
Sea Level Pressure 29.76 in    
Wind  
Wind Speed 6 mph (ESE)    
Max Wind Speed 18 mph    
Max Gust Speed 28 mph    
Visibility 10 miles    
Events      
T = Trace of Precipitation, MM = Missing Value Source: NWS Daily Summary

Daily Weather History Graph

Daily Weather History Graph

Search for Another Location

Airport:

Trip Planner

Search our weather history database for the weather conditions in past years. The results will help you decide how hot, cold, wet, or windy it might be!

Date:

Astronomy

May. 31, 2013 Rise Set
Actual Time 5:25 AM PDT 7:51 PM PDT
Civil Twilight 4:55 AM PDT 8:21 PM PDT
Nautical Twilight 4:19 AM PDT 8:58 PM PDT
Astronomical Twilight 3:38 AM PDT 9:38 PM PDT
Moon 12:37 AM PDT 12:35 PM PDT
Length of Visible Light 15h 25m
Length of Day
14h 26m
Waning Gibbous, 50% of the Moon is Illuminated
May 31
Waning Gibbous
May 31
Last Quarter
Jun 8
New
Jun 16
First Quarter
Jun 23
Full

Hourly Weather History & Observations

Time (PDT) Temp. Dew Point Humidity Pressure Visibility Wind Dir Wind Speed Gust Speed Precip Events Conditions
12:56 AM 82.9 °F 18.0 °F 9% 29.64 in 10.0 mi SSW 12.7 mph - N/A   Clear
1:56 AM 82.0 °F 14.0 °F 8% 29.64 in 10.0 mi SSW 15.0 mph - N/A   Clear
2:56 AM 79.0 °F 16.0 °F 9% 29.66 in 10.0 mi SSW 10.4 mph - N/A   Clear
3:56 AM 77.0 °F 19.9 °F 12% 29.68 in 10.0 mi WSW 6.9 mph - N/A   Clear
4:56 AM 75.0 °F 26.1 °F 16% 29.71 in 10.0 mi Calm Calm - N/A   Clear
5:56 AM 77.0 °F 18.0 °F 11% 29.76 in 10.0 mi ENE 9.2 mph - N/A   Clear
6:56 AM 80.1 °F 17.1 °F 9% 29.80 in 10.0 mi ENE 8.1 mph - N/A   Clear
7:56 AM 82.0 °F 17.1 °F 9% 29.83 in 10.0 mi NE 6.9 mph - N/A   Clear
8:56 AM 84.9 °F 18.0 °F 8% 29.84 in 10.0 mi NE 8.1 mph - N/A   Clear
9:56 AM 87.1 °F 21.0 °F 9% 29.85 in 10.0 mi ENE 9.2 mph - N/A   Clear
10:56 AM 91.0 °F 19.0 °F 7% 29.84 in 10.0 mi NE 12.7 mph - N/A   Clear
11:56 AM 91.0 °F 18.0 °F 7% 29.83 in 10.0 mi East 5.8 mph - N/A   Clear
12:56 PM 91.9 °F 19.0 °F 7% 29.82 in 10.0 mi Variable 5.8 mph - N/A   Clear
1:56 PM 93.0 °F 19.0 °F 7% 29.79 in 10.0 mi South 9.2 mph - N/A   Clear
2:56 PM 95.0 °F 19.0 °F 6% 29.78 in 10.0 mi Calm Calm - N/A   Clear
3:56 PM 96.1 °F 19.0 °F 6% 29.75 in 10.0 mi SE 5.8 mph - N/A   Clear
4:56 PM 97.0 °F 18.0 °F 6% 29.74 in 10.0 mi Calm Calm - N/A   Clear
5:56 PM 96.1 °F 18.0 °F 6% 29.74 in 10.0 mi SE 4.6 mph - N/A   Clear
6:56 PM 95.0 °F 16.0 °F 6% 29.73 in 10.0 mi SSE 4.6 mph - N/A   Clear
7:56 PM 93.0 °F 16.0 °F 6% 29.74 in 10.0 mi SSE 5.8 mph - N/A   Clear
8:56 PM 91.0 °F 19.0 °F 7% 29.75 in 10.0 mi SSE 4.6 mph - N/A   Clear
9:56 PM 88.0 °F 21.0 °F 9% 29.77 in 10.0 mi SSE 4.6 mph - N/A   Clear
10:56 PM 86.0 °F 21.9 °F 10% 29.78 in 10.0 mi North 4.6 mph - N/A   Clear
11:56 PM 84.0 °F 23.0 °F 11% 29.79 in 10.0 mi NNE 5.8 mph - N/A   Clear